Content
SEND FEEDBACK

Daily
Averages
Monthly
Summary
Greece

THESSALONIKI, GREECE


Home > Europe > Greece
Elevation: 13 feet     Latitude: 40 13N     Longitude: 022 58E

WEATHER
 
SELECT A DAY
Number of Records: 93,908;   Date Range: 7/3/96 - 7/27/14
 
SHARE

PRINT THIS DATA

[ ← Previous Day ]
WEATHER ALMANAC - NOVEMBER 22, 2013
[ Next Day → ]
[ °C ]   °F
Weather ElementAverageHighLow
Temperature57.2 °F68 °F (3:20 pm)51.8 °F (6:50 am)
Dewpoint49.5 °F55.4 °F (10:20 am)42.8 °F (3:50 pm)
Humidity76.4 %94 % (6:50 am)43 % (3:50 pm)
Barometer29.72 in29.77 in (8:20 pm)29.68 in (12:50 am)
Wind Speed4.1 mph6.9 mph (2:50 am)
Weather ElementAverage
Visibility5.1 mi
Wind DirectionESE (119.8 °)

Weather ElementTotal
Precipitation---
Heating Degree Days5.1 (Base 65)
Growing Degree Days9.9 (Base 50)
Averaged from 51 records on November 22, 2013
WEATHER CONDITIONS BREAKOUT
WIND DIRECTION BREAKOUT
WEATHER BY HOUR - NOVEMBER 22, 2013
[ °C ]   °F
Local TimeTemperatureDewpointHumidityBarometerVisibilityWind DirectionWind SpeedGust SpeedPrecipitationEventsConditions
12:50 AM55.4 °F48.2 °F77 %29.68 in6.2 miEast (90°)4.6 mphMostly Cloudy
1:20 AM57.2 °F50.0 °F77 %29.71 in6.2 miVariable3.5 mphMostly Cloudy
1:50 AM57.2 °F50.0 °F77 %29.68 in6.2 miWSW (240°)4.6 mphMostly Cloudy
2:00 AM57.0 °F50.0 °F72 %29.70 in6.0 miWSW (240°)4.6 mphPartly Cloudy
2:20 AM55.4 °F51.8 °F88 %29.68 in6.2 miVariable3.5 mphMostly Cloudy
2:50 AM57.2 °F53.6 °F88 %29.71 in6.2 miWNW (290°)6.9 mphMostly Cloudy
3:20 AM57.2 °F53.6 °F88 %29.71 in6.2 miVariable3.5 mphMostly Cloudy
3:50 AM57.2 °F53.6 °F88 %29.68 in6.2 miWNW (290°)4.6 mphMostly Cloudy
4:20 AM57.2 °F53.6 °F88 %29.68 in5.0 miWNW (300°)5.8 mphMostly Cloudy
4:50 AM55.4 °F51.8 °F88 %29.68 in5.0 miVariable2.3 mphMostly Cloudy
5:20 AM55.4 °F51.8 °F88 %29.68 in5.0 miVariable2.3 mphMostly Cloudy
5:50 AM53.6 °F50.0 °F88 %29.68 in5.0 miCalmMostly Cloudy
6:20 AM53.6 °F50.0 °F88 %29.68 in5.0 miCalmMostly Cloudy
6:50 AM51.8 °F50.0 °F94 %29.71 in5.0 miCalmMostly Cloudy
7:20 AM55.4 °F51.8 °F88 %29.71 in4.3 miNNW (330°)4.6 mphScattered Clouds
7:50 AM51.8 °F50.0 °F94 %29.71 in0.6 miESE (120°)4.6 mphScattered Clouds
8:00 AM52.0 °F49.0 °F86 %29.72 in1.0 miESE (120°)4.6 mphMist
8:20 AM53.6 °F50.0 °F88 %29.71 in0.1 miVariable1.2 mphFogFog
8:50 AM53.6 °F51.8 °F94 %29.71 in0.2 miESE (110°)4.6 mphFogFog
9:20 AM53.6 °F51.8 °F94 %29.71 in0.6 miESE (110°)4.6 mphFogFog
9:50 AM55.4 °F53.6 °F94 %29.71 in1.6 miVariable1.2 mphScattered Clouds
10:20 AM57.2 °F55.4 °F94 %29.71 in2.5 miVariable1.2 mphScattered Clouds
10:50 AM57.2 °F53.6 °F88 %29.71 in2.5 miVariable3.5 mphPartly Cloudy
11:20 AM59.0 °F53.6 °F82 %29.71 in4.3 miVariable3.5 mphPartly Cloudy
11:50 AM59.0 °F53.6 °F82 %29.71 in5.0 miVariable3.5 mphPartly Cloudy
12:20 PM60.8 °F53.6 °F77 %29.71 in5.0 miVariable3.5 mphPartly Cloudy
12:50 PM62.6 °F51.8 °F68 %29.71 in6.2 miWest (280°)4.6 mphPartly Cloudy
1:20 PM62.6 °F51.8 °F68 %29.71 in6.2 miWest (280°)4.6 mphPartly Cloudy
1:50 PM64.4 °F51.8 °F64 %29.71 in6.2 miWest (270°)5.8 mphPartly Cloudy
2:00 PM64.0 °F52.0 °F56 %29.72 in6.0 miWest (270°)5.8 mphPartly Cloudy
2:20 PM64.4 °F51.8 °F64 %29.71 in6.2 miWNW (300°)6.9 mphPartly Cloudy
2:50 PM66.2 °F50.0 °F56 %29.71 in6.2 miWSW (250°)6.9 mphPartly Cloudy
3:20 PM68.0 °F48.2 °F49 %29.71 in6.2 miSW (230°)4.6 mphPartly Cloudy
3:50 PM66.2 °F42.8 °F43 %29.71 in6.2 miSW (230°)5.8 mphPartly Cloudy
4:20 PM66.2 °F46.4 °F49 %29.71 in6.2 miSW (230°)5.8 mphPartly Cloudy
4:50 PM64.4 °F46.4 °F52 %29.71 in6.2 miSSW (200°)3.5 mphPartly Cloudy
5:20 PM62.6 °F46.4 °F55 %29.71 in6.2 miCalmPartly Cloudy
5:50 PM57.2 °F46.4 °F67 %29.74 in6.2 miCalmPartly Cloudy
6:20 PM55.4 °F44.6 °F67 %29.74 in6.2 miEast (80°)3.5 mphPartly Cloudy
6:50 PM55.4 °F46.4 °F72 %29.74 in6.2 miCalmPartly Cloudy
7:20 PM53.6 °F44.6 °F72 %29.74 in6.2 miESE (110°)4.6 mphPartly Cloudy
7:50 PM53.6 °F44.6 °F72 %29.74 in6.2 miEast (100°)6.9 mphPartly Cloudy
8:00 PM53.0 °F45.0 °F67 %29.76 in6.0 miEast (100°)6.9 mphScattered Clouds
8:20 PM51.8 °F44.6 °F76 %29.77 in6.2 miESE (120°)4.6 mphPartly Cloudy
8:50 PM53.6 °F46.4 °F77 %29.77 in6.2 miSE (130°)5.8 mphPartly Cloudy
9:20 PM55.4 °F44.6 °F67 %29.77 in6.2 miESE (120°)5.8 mphPartly Cloudy
9:50 PM51.8 °F44.6 °F76 %29.77 in6.2 miESE (110°)5.8 mphPartly Cloudy
10:20 PM53.6 °F46.4 °F77 %29.77 in6.2 miESE (120°)6.9 mphPartly Cloudy
10:50 PM53.6 °F46.4 °F77 %29.77 in6.2 miESE (120°)6.9 mphPartly Cloudy
11:20 PM53.6 °F46.4 °F77 %29.77 in6.2 miESE (120°)5.8 mphPartly Cloudy
11:50 PM53.6 °F46.4 °F77 %29.77 in6.2 miEast (100°)6.9 mphPartly Cloudy
Hourly data recorded from LGTS, located miles away from Thessaloniki, Greece







STORIES FROM OUR PARTNERS